Theta_e
311 310 311 310 309 310 311 312 313 312 312 312 313 311 310 311 310 308 307 305 304 302 300 299 299 298 299 301 302 302 305 306 312 314 316 318 319 320 320 321 321 321 320 321
311 311 311 311 313 313 313 313 312 312 313 311 310 310 310 308 306 306 305 303 302 300 299 298 298 297 297 296 298 301 302 303 304 306 308 310 311 310 311 312 315 317 317 317
311 313 312 314 314 315 314 314 314 313 311 310 309 309 310 307 306 304 303 301 300 300 299 298 297 297 297 296 295 297 299 300 301 303 305 306 306 305 305 304 305 306 311 313
313 312 313 313 313 313 314 312 312 312 310 311 309 311 310 308 307 304 302 300 300 299 298 298 297 296 296 296 295 295 296 296 297 299 300 299 298 299 299 300 301 303 306 309
316 311 311 312 312 311 312 311 311 311 310 311 311 310 309 309 308 305 303 301 300 299 298 297 297 296 296 296 295 295 295 295 295 295 295 296 296 296 297 297 298 299 300 302
311 309 310 310 310 311 309 310 310 309 309 314 314 312 314 310 309 305 303 302 300 298 296 296 296 296 295 295 294 294 293 293 294 294 294 294 294 294 294 294 294 295 296 297
313 311 310 310 312 309 309 311 316 316 314 317 315 315 316 310 307 306 304 299 297 295 294 294 294 294 294 293 293 293 291 290 290 291 292 292 292 292 291 291 290 290 290 293
318 319 311 310 313 313 309 312 313 312 317 314 313 315 314 306 304 301 298 297 296 294 294 293 294 294 293 293 292 291 290 289 288 288 289 289 288 288 288 286 285 285 285 286
318 318 310 310 311 312 314 314 312 314 307 309 314 313 309 305 302 299 297 296 295 294 293 292 292 293 292 292 291 290 290 289 288 287 287 287 286 286 286 285 285 284 284 284
314 318 314 309 309 308 311 308 313 310 307 308 314 313 313 308 303 300 298 297 295 293 292 291 291 291 291 290 290 290 289 289 288 287 286 286 286 286 285 285 285 285 285 284
313 315 313 312 312 312 309 309 309 310 310 312 312 311 310 309 302 300 299 297 295 292 290 290 290 290 290 290 289 289 288 288 288 287 286 286 285 285 285 285 285 285 284 284
313 310 314 313 311 309 310 310 309 314 309 314 314 313 304 303 302 300 299 297 294 291 290 289 290 289 289 289 289 288 288 287 287 287 286 286 286 285 285 284 284 284 284 284
312 308 303 305 309 309 312 311 311 311 311 309 310 309 302 300 300 299 297 294 293 292 288 288 288 289 289 289 288 288 288 288 287 287 287 286 286 285 285 285 284 284 284 283
310 309 304 305 307 308 308 307 308 310 306 304 307 306 304 301 300 296 293 290 288 288 289 288 287 288 289 289 289 288 288 288 288 287 287 287 287 286 286 285 284 284 283 282
306 303 306 306 306 306 305 305 304 304 303 302 302 300 299 298 298 295 291 289 288 289 289 287 287 288 288 288 288 288 288 288 288 287 287 287 287 286 285 284 284 283 282 282
301 298 298 292 301 302 302 301 301 301 301 300 300 300 299 295 290 288 288 289 289 289 288 289 288 288 288 288 288 288 288 287 287 287 286 286 285 284 283 283 282 282 282 281
298 296 288 290 297 293 292 295 298 298 297 298 298 298 291 294 290 288 288 289 288 287 288 287 286 287 288 288 288 288 287 286 285 284 284 283 283 282 282 281 281 281 281 280
297 291 285 284 282 288 293 292 294 295 295 292 291 288 290 290 288 288 288 288 288 288 287 286 287 287 287 287 286 285 284 283 282 281 281 280 280 280 279 279 279 278 278 278
296 297 287 289 279 288 293 292 291 290 289 286 288 287 289 289 287 287 288 288 288 287 287 287 287 285 284 283 282 281 279 278 278 277 277 277 276 275 274 274 274 273 273 273
290 297 297 276 287 287 289 289 289 288 288 284 283 285 288 288 286 285 286 287 287 288 287 285 283 282 281 279 278 276 276 275 275 274 273 272 271 270 270 269 269 268 268 268
283 282 296 294 287 286 288 288 288 288 289 284 286 289 289 287 286 286 287 286 287 285 283 282 281 279 277 276 274 273 273 272 271 270 269 268 267 266 266 265 265 265 265 265
287 285 282 282 290 290 287 288 289 288 288 287 289 288 287 287 287 287 286 286 283 282 281 279 278 276 274 273 272 271 270 269 268 267 266 265 264 264 264 263 263 263 263 263
288 287 285 287 287 288 287 288 289 289 287 289 288 288 287 287 286 286 285 283 282 279 278 276 274 273 272 271 269 268 268 267 266 265 264 263 263 263 263 263 262 263 263 263
287 287 287 286 288 289 289 288 288 288 288 288 287 287 286 286 286 285 282 281 278 277 275 273 272 270 270 269 268 267 266 265 264 263 263 263 263 262 262 262 262 262 263 263
288 287 287 286 288 288 288 287 288 287 287 286 285 286 286 285 281 281 278 276 276 274 272 270 269 268 268 267 266 266 265 264 263 263 262 262 262 262 261 261 262 262 263 264
288 289 289 288 289 288 288 288 287 287 287 286 286 281 280 281 279 277 275 274 273 271 269 268 267 266 266 265 265 266 265 264 263 262 262 262 262 261 261 261 262 262 264 265
Wind_Speed
3 4 7 11 9 5 3 5 4 5 8 4 7 7 10 17 4 7 15 14 13 14 16 26 30 35 36 36 35 34 32 28 18 11 6 4 4 2 4 6 7 12 12 16
3 6 11 5 5 5 4 4 6 4 2 4 7 12 12 11 10 16 14 12 11 12 15 23 28 32 35 34 35 33 32 31 28 23 19 13 12 13 12 8 4 8 11 13
8 7 6 4 3 5 3 5 4 5 3 5 4 7 7 8 15 15 14 12 12 12 12 13 22 25 29 34 34 35 33 31 27 23 17 14 13 14 16 16 12 10 8 12
6 7 5 7 6 7 5 7 7 4 3 3 3 4 2 8 10 11 9 9 10 10 11 13 17 22 26 30 31 33 34 34 34 30 26 25 24 18 19 19 15 10 8 8
5 6 5 4 7 7 6 2 3 2 3 2 4 3 5 9 4 6 6 8 8 9 10 10 15 20 25 27 29 29 31 31 31 31 32 30 28 24 21 20 17 16 14 11
5 2 3 7 3 2 2 1 3 2 3 1 5 6 3 6 9 7 7 8 8 9 8 13 18 21 25 25 26 28 29 29 28 28 28 28 27 26 27 27 28 26 22 15
3 5 2 2 1 4 3 4 3 3 1 5 1 2 5 2 9 12 13 10 8 7 7 7 12 18 21 23 24 25 26 28 27 26 26 26 25 23 23 23 24 25 26 25
4 5 8 4 5 5 5 6 4 5 2 4 7 5 5 10 16 15 12 8 7 7 6 7 11 14 16 17 19 19 20 21 22 22 21 20 21 21 21 20 20 20 22 22
6 5 3 3 1 5 4 3 3 2 2 3 4 2 4 8 12 12 10 8 7 6 5 6 11 12 13 14 15 15 16 17 18 18 17 18 18 18 18 18 19 21 21 22
3 2 1 2 2 2 3 3 1 2 0 4 4 4 5 9 11 10 7 7 6 6 6 6 9 10 10 9 7 8 8 8 10 11 13 13 15 17 18 19 22 23 24 24
3 3 3 3 4 6 1 1 2 3 5 5 3 5 2 14 13 10 8 10 9 8 7 6 8 8 7 5 4 4 4 3 8 10 12 10 10 13 16 17 20 24 25 26
1 4 3 8 5 3 3 4 6 4 4 3 1 9 5 14 12 12 9 8 7 8 7 8 10 7 4 2 0 1 2 7 9 10 15 16 16 17 18 20 18 20 25 25
5 1 1 8 3 3 2 2 4 4 2 6 4 6 3 6 5 5 7 7 7 6 7 6 8 8 6 5 5 6 6 8 10 12 15 17 19 21 26 28 29 31 30 30
3 3 6 8 3 2 2 3 4 4 1 2 7 6 11 8 6 7 8 7 7 6 6 6 7 11 10 12 13 14 14 14 16 18 20 23 27 31 36 39 40 40 38 37
3 4 2 3 2 0 4 11 3 7 7 7 19 11 19 13 3 7 9 7 6 4 3 4 3 7 12 14 15 16 18 17 20 21 23 27 27 34 39 40 40 41 40 40
3 3 2 5 4 5 10 18 10 14 16 12 16 20 12 1 6 6 7 6 5 4 5 5 4 5 7 9 10 21 18 16 16 20 23 27 34 39 36 34 33 33 34 34
5 5 3 6 2 5 7 16 17 11 9 7 10 12 1 4 6 6 5 3 4 5 4 4 6 8 10 9 12 10 11 13 16 22 29 35 36 39 39 37 37 37 36 36
6 6 3 3 4 2 7 3 5 11 9 6 2 4 7 5 6 6 5 3 3 3 5 6 8 6 6 3 4 9 16 23 26 26 27 30 32 33 32 32 33 35 35 37
4 6 2 4 5 6 11 6 6 7 7 5 6 5 5 5 3 2 4 5 5 6 10 6 1 5 6 8 11 17 21 21 20 21 23 22 23 30 33 35 37 38 38 40
3 5 7 3 6 9 6 3 4 5 6 8 5 3 6 5 1 5 6 6 8 10 1 2 4 6 9 10 17 18 15 17 17 18 22 26 27 28 28 30 35 38 37 41
3 1 15 12 5 7 8 6 4 5 8 3 5 6 7 5 6 5 4 7 3 6 4 5 10 11 10 15 18 14 15 15 17 22 24 24 26 29 31 32 32 34 35 36
7 8 4 2 3 8 7 4 7 6 2 4 5 6 6 7 7 6 8 5 6 3 2 9 12 10 14 17 20 17 16 19 22 22 25 29 30 30 30 31 33 32 32 34
2 7 6 10 7 5 7 6 7 5 5 6 6 8 9 7 7 8 6 5 4 4 3 7 12 15 14 16 18 19 21 24 25 27 29 29 30 29 28 30 31 31 29 30
5 4 3 4 6 8 10 7 6 7 8 9 9 9 7 8 8 6 4 2 3 4 5 9 16 16 14 18 19 23 25 27 28 30 28 28 28 29 29 28 28 28 29 29
7 5 5 3 7 8 8 9 10 10 9 8 6 7 7 6 3 4 4 3 1 2 5 10 12 12 17 22 24 25 26 26 28 26 27 27 27 28 29 28 29 30 32 32
6 12 6 7 12 7 6 7 6 8 10 9 7 2 3 6 6 5 4 4 2 2 8 12 12 15 21 25 26 27 25 25 28 27 25 27 29 29 29 29 30 33 34 36
Wind_Direction
209 118 202 218 202 212 269 242 243 255 280 328 288 289 293 277 291 296 90 83 77 66 52 43 41 43 45 50 52 52 56 54 63 60 69 85 104 189 261 255 248 251 249 241
76 217 228 224 220 220 237 274 279 288 315 349 301 299 300 43 64 85 85 77 74 65 52 46 42 43 44 43 49 53 53 52 53 58 60 64 66 62 60 38 333 283 269 263
178 213 178 191 287 294 264 229 216 237 303 285 314 296 114 69 69 74 70 83 76 70 64 49 44 43 46 48 47 51 55 57 58 58 61 68 73 54 37 22 12 360 299 287
238 237 222 261 235 180 244 228 192 223 86 217 94 278 247 106 73 64 69 70 76 71 63 60 51 45 45 48 52 55 53 51 52 58 64 62 55 46 31 26 24 16 6 317
254 173 166 174 221 169 233 110 198 198 189 27 283 138 270 125 104 115 109 90 79 78 79 69 58 57 56 52 50 50 52 52 51 50 51 52 51 46 40 32 26 22 27 10
232 330 179 208 208 160 121 358 305 77 124 264 240 164 249 182 173 159 145 115 92 75 66 70 66 59 52 49 50 47 47 45 45 47 46 47 45 39 34 30 27 22 18 9
303 212 257 177 103 37 88 66 322 354 26 221 244 268 245 322 137 130 118 102 90 81 65 62 61 59 56 50 46 43 43 42 38 40 41 39 39 38 37 29 22 16 10 7
185 309 155 185 188 189 177 167 159 224 220 250 345 271 351 66 89 94 90 91 84 76 78 73 74 72 65 59 54 50 46 42 38 36 34 33 35 32 29 27 23 20 13 5
188 233 126 92 148 151 193 167 180 125 86 48 220 117 72 95 96 103 110 105 104 96 88 86 77 73 64 54 50 45 39 33 30 25 25 24 21 23 18 11 8 8 6 1
193 266 295 185 109 32 147 167 62 12 239 259 274 243 189 169 139 132 140 136 130 125 113 103 96 88 84 75 71 59 48 44 28 17 21 9 7 3 3 356 351 349 350 348
125 114 262 116 203 177 78 182 156 147 148 189 261 254 240 161 150 153 162 170 168 158 146 133 119 108 99 84 73 66 42 15 14 4 2 356 356 348 344 339 332 337 335 335
78 132 205 226 278 90 191 222 175 173 233 247 242 266 94 136 161 169 181 168 164 154 152 151 149 143 147 142 152 224 344 8 359 347 342 342 336 338 330 330 323 314 317 322
176 215 6 338 353 27 110 122 105 101 122 213 207 256 178 123 140 173 175 179 172 157 160 170 165 186 203 228 267 289 306 314 328 329 326 325 322 324 328 326 321 324 324 316
90 155 172 218 160 103 280 237 135 131 216 204 239 276 228 215 235 196 197 185 164 171 189 196 204 213 232 257 277 283 286 292 298 308 313 316 322 324 323 322 322 322 320 316
99 182 245 263 110 77 237 267 208 196 221 210 267 256 267 292 286 193 178 164 161 158 170 180 198 241 260 265 264 264 268 282 294 299 306 310 311 316 314 313 314 313 311 309
19 224 101 307 281 222 258 263 256 242 248 242 251 266 281 25 97 100 123 138 161 218 241 240 257 277 287 301 306 314 285 284 296 303 307 310 312 311 309 307 305 303 299 297
132 129 78 270 327 47 303 242 231 231 214 207 224 246 124 229 148 153 152 189 242 275 250 237 248 257 275 305 310 299 306 318 322 318 312 311 308 307 306 305 303 300 299 299
142 120 119 218 35 284 249 288 202 216 245 188 200 229 221 212 143 157 199 188 186 225 248 254 264 290 340 1 350 331 328 324 322 316 310 306 305 303 305 306 305 303 303 299
179 163 162 163 199 304 294 240 195 170 267 192 194 232 217 172 93 298 167 179 209 227 245 259 70 65 58 357 335 328 326 323 318 313 310 311 306 304 305 303 301 300 302 298
161 209 196 113 182 214 242 251 159 108 279 225 159 213 176 137 188 244 243 235 264 268 231 97 33 17 6 346 333 336 328 323 317 315 309 307 305 301 300 297 296 295 293 291
111 40 218 218 224 278 242 209 162 105 269 211 180 195 178 184 202 222 254 276 295 112 78 356 349 3 353 338 339 336 326 319 315 310 308 306 305 301 299 296 294 293 292 291
160 164 196 112 217 265 187 92 159 212 221 183 190 190 201 230 252 262 257 190 151 146 359 341 348 354 339 338 338 332 326 321 319 315 312 308 306 304 300 296 295 293 290 289
208 192 180 182 205 224 199 192 213 168 160 201 202 226 214 234 245 247 216 192 150 115 34 347 343 336 338 336 339 328 325 325 322 318 313 309 306 301 299 297 294 293 290 286
277 154 195 95 227 220 205 228 230 205 220 224 219 228 213 224 236 217 173 137 75 59 23 341 337 336 330 332 332 330 329 327 323 316 310 307 306 305 302 298 294 292 289 288
205 141 191 259 266 265 266 231 233 230 233 233 227 209 215 205 174 150 151 139 126 334 329 334 335 325 318 326 328 331 333 330 320 311 307 307 308 305 301 297 294 292 289 288
190 225 217 230 233 194 227 224 215 216 237 235 199 170 163 168 167 151 166 181 231 314 326 332 329 321 320 323 327 330 333 330 319 306 311 310 306 303 300 299 297 298 297 298